Location: New Plymouth
(39.0670°S, 174.0830°E)
Time: 11:38:21
(UTC+13:00)

Daily predictions for brighter satellites

Satellite Brightness Start Highest point End
(mag) Time Altitude Azimuth Time Altitude Azimuth Time Altitude Azimuth
Cosmos 2123 Rocket 4.1 20:06:35 10° S 20:13:00 80° E 20:19:22 10° N
Cosmos 1656 Rocket 4.0 20:10:17 10° SSW 20:16:02 76° WNW 20:21:42 10° NNE
YAOGAN 6 2.8 20:14:01 10° SSE 20:17:45 54° E 20:21:25 10° N
Okean-O 3.1 20:13:55 10° S 20:18:25 71° WSW 20:22:51 10° NNW
Aureole 2 Rocket 2.6 20:16:38 10° S 20:19:12 34° ESE 20:21:43 10° NE
NOAA 12 4.2 20:14:35 10° SSE 20:19:55 87° WSW 20:25:12 10° NNW
Cosmos 1703 3.6 20:19:45 10° NNW 20:23:39 73° W 20:27:37 10° S
CZ-4 R/B 4.4 20:22:19 10° SSE 20:26:32 68° E 20:30:40 10° N
Cosmos 1354 Rocket 4.2 20:23:39 10° NNW 20:28:57 82° WSW 20:34:21 10° SSE
Cosmos 1605 Rocket 4.0 20:26:15 10° N 20:32:23 90° E 20:38:39 10° S
Cosmos 1833 Rocket 4.3 20:29:52 10° NE 20:32:31 14° E 20:35:11 10° ESE
Envisat 3.3 20:31:54 10° S 20:37:04 74° WSW 20:42:09 10° NNW
Cosmos 1867 4.0 20:31:53 10° SSW 20:37:07 47° SE 20:41:44 13° NE
Cosmos 1340 Rocket 3.2 20:33:26 10° SSW 20:37:26 67° W 20:41:22 10° N
Meteor 2-10 Rocket 4.4 20:42:46 10° SSW 20:48:34 61° W 20:54:09 10° N
Cosmos 2173 Rocket 4.3 20:44:05 10° NNE 20:49:48 44° E 20:55:37 10° SSE
Cosmos 1777 Rocket 4.3 20:45:03 10° N 20:49:59 44° ENE 20:55:00 10° SSE
CZ-2D R/B 3.3 20:48:09 10° SSE 20:51:58 55° E 20:55:44 10° N
Cosmos 1939 Rocket 2.9 20:50:02 10° SSE 20:53:53 51° E 20:57:41 10° N
YAOGAN 1 2.7 20:51:40 10° S 20:56:05 80° WSW 21:00:26 10° NNW
CZ-4C R/B 2.9 20:49:05 10° NNW 20:57:19 76° ENE 21:04:34 10° SE
Cosmos 1802 Rocket 4.3 20:54:22 10° NNE 21:00:15 44° E 21:06:08 10° SSE
Cosmos 1869 3.7 20:59:41 10° S 21:03:36 44° E 21:05:39 24° NE
CSL-04 Rocket 3.8 20:58:50 10° SSE 21:04:27 82° WSW 21:10:02 10° NNW
Cosmos 2082 Rocket 3.7 21:05:23 17° E 21:05:23 17° E 21:08:07 10° ESE
Centaur AC-112 4.3 21:04:28 10° WNW 21:06:42 13° NNW 21:08:07 10° N
GPS 2-04 Rocket1 2.9 21:04:41 10° WNW 21:08:00 41° N 21:09:00 32° NE
Haruka 4.5 20:53:43 10° W 21:08:03 41° NNW 21:11:13 20° NE
DELTA 2 R/B (1) 3.6 21:02:34 10° W 21:08:15 87° S 21:12:30 18° E
Cosmos 1766 Rocket 4.4 21:09:15 26° ENE 21:10:36 32° E 21:14:37 10° SSE
Cosmos 2221 3.1 21:06:25 10° SSW 21:10:46 60° W 21:15:00 10° N
PSLV R/B 3.0 21:08:43 10° W 21:11:19 48° NNW 21:11:38 44° N
Cosmos 1892 3.5 21:11:34 30° E 21:11:53 30° E 21:15:18 10° SSE
DMSP B5D2-2 4.3 21:12:07 10° N 21:17:20 73° WNW 21:22:38 10° SSW
BREEZE-M DEB (TANK) 4.2 21:16:36 10° SSW 21:17:52 12° SSE 21:19:19 10° SE
Cosmos 1076 Rocket 3.8 21:13:38 10° NNW 21:17:54 67° W 21:22:13 10° S
Cosmos 2100 Rocket 3.9 21:11:52 10° N 21:18:03 83° E 21:24:23 10° S
Ariane Rocket 2.9 21:14:33 10° SSE 21:19:41 69° ENE 21:24:46 10° N
Lacrosse 5 rocket 3.6 21:16:22 10° N 21:16:53 13° N 21:16:53 13° N
ATLAS CENTAUR R/B 4.2 21:04:18 10° NW 21:21:00 73° SW 21:26:48 10° SE
USA 229 DEB 3.6 21:14:20 10° SSW 21:21:14 85° ESE 21:25:18 25° NE
USA 229 3.6 21:14:22 10° SSW 21:21:18 84° ESE 21:25:22 26° NE
Cosmos 1697 Rocket 4.0 21:17:33 10° S 21:22:07 24° SE 21:23:50 21° E
COSMOS 2406 3.1 21:16:55 10° NNW 21:22:37 85° ENE 21:28:21 10° SSE
Okean 3 Rocket 3.6 21:19:49 21° NNE 21:22:37 58° E 21:27:00 10° SSE
NOAA 11 4.2 21:17:59 10° SSE 21:23:36 86° WSW 21:29:06 10° NNW
Cosmos 2058 2.9 21:19:30 10° N 21:23:41 81° W 21:27:53 10° S
CZ-4 R/B 3.8 21:22:28 10° SSW 21:25:45 25° WSW 21:29:03 10° NW
MOS 1 Rocket 4.1 21:24:43 31° E 21:25:52 35° ESE 21:30:26 10° S
NOSS 3-1 (A) 3.6 21:21:11 10° SSW 21:27:24 54° SE 21:29:47 33° ENE
In-Cosmos 22 Rocket 4.2 21:21:52 10° N 21:27:38 70° E 21:33:31 10° SSE
FREGAT/IRIS 3.2 21:25:04 10° SSE 21:27:08 40° SE 21:27:08 40° SE
Meteor 2-20 Rocket 4.4 21:22:46 10° S 21:29:00 89° W 21:34:00 16° N
USA 186 2.5 21:29:24 10° SSE 21:32:00 40° SE 21:32:00 40° SE
USA 215 3.5 21:26:36 10° ESE 21:32:50 43° NE 21:38:59 10° NNW
Cosmos 2016 Rocket 4.0 21:28:35 10° N 21:34:56 72° E 21:41:19 10° SSE
Cosmos 2151 2.9 21:36:43 43° NNE 21:37:59 68° E 21:42:17 10° SSE
CZ-2C R/B 4.5 21:35:36 10° SE 21:38:40 23° ESE 21:38:40 23° ESE
MOS 1 4.2 21:35:11 10° SSE 21:40:56 66° ENE 21:44:50 21° N
NOSS 3-1 (C) 3.3 21:35:45 10° SW 21:41:59 77° WNW 21:44:19 36° NNE
SJ-6B 3.3 21:38:15 10° SSE 21:41:47 46° ESE 21:41:47 46° ESE
CZ-2C R/B 2.8 21:39:24 22° N 21:42:50 69° WNW 21:48:04 10° SSW
SL-08 R/B 4.4 21:38:54 21° N 21:43:09 70° E 21:49:27 10° SSE
Atlas 2A Centaur Rocket 4.2 21:14:26 10° WNW 21:43:48 43° NNW 21:46:52 31° NNE
EXPRESS MD2 4.4 21:41:22 10° WSW 21:44:34 40° NW 21:45:50 33° N
ISS -0.8 21:47:49 10° WSW 21:50:03 16° SSW 21:52:17 10° SSE
BREEZE-M R/B 4.2 21:40:47 10° WSW 21:50:54 48° SSE 21:51:48 40° SE
IRS-1A Rocket 4.4 21:47:11 10° S 21:52:59 75° WSW 21:58:36 10° NNW
Cosmos 1408 4.3 21:57:07 24° SSE 21:57:07 24° SSE 21:58:45 10° SSE
Cosmos 1656 3.6 21:49:30 10° SSW 21:55:15 74° ESE 21:56:36 53° NE
Cosmos 1356 Rocket 4.0 21:56:08 10° SSW 22:00:14 54° W 22:00:59 46° NW
Cosmos 2278 4.2 22:00:12 10° S 22:05:37 42° ESE 22:05:57 42° ESE
SPOT 3 Rocket 3.4 22:02:13 10° SSE 22:07:27 72° ENE 22:07:46 70° NE
NOSS 2-3 (C) 4.1 22:05:09 10° SSW 22:11:52 79° SE 22:12:32 68° ENE
Cosmos 1980 Rocket 3.1 22:09:44 10° S 22:14:45 34° ESE 22:14:45 34° ESE
Cosmos 1833 Rocket 2.8 22:10:01 10° NNW 22:15:41 75° WSW 22:21:25 10° SSE
Resurs 01 Rocket 3.5 22:12:30 10° SSE 22:14:09 21° SE 22:14:09 21° SE
Cosmos 1680 Rocket 3.7 22:15:11 10° SSW 22:20:09 60° SE 22:20:09 60° SE
Cosmos 1515 Rocket 4.4 22:17:54 10° S 22:21:09 45° SSE 22:21:09 45° SSE
H-2A R/B 1.9 22:17:58 10° SSE 22:23:01 86° WSW 22:23:03 86° W
SJ 16-02 3.7 22:27:05 14° SSE 22:27:05 14° SSE 22:27:51 10° SSE
Tsikada Rocket 4.0 22:19:13 10° S 22:25:28 79° W 22:26:44 58° NNW
Mayak 0.9 22:30:32 19° SSE 22:30:32 19° SSE 22:32:09 10° S
Meteor 2-3 Rocket 4.2 22:30:36 48° SE 22:30:36 48° SE 22:35:06 10° SSE
Cosmos 1151 Rocket 3.9 22:30:24 10° SSW 22:33:48 47° SW 22:33:48 47° SW
Cosmos 923 Rocket 4.1 22:29:23 10° SSW 22:34:35 74° W 22:34:35 74° W
ATLAS CENTAUR Rocket 3.9 22:02:50 10° WNW 22:37:27 47° NNW 22:38:38 45° N
Cosmos 1825 4.4 22:44:05 24° SSW 22:44:05 24° SSW 22:45:49 10° S
Thor Agena Rocket 4.1 22:45:28 52° W 22:45:28 52° W 22:50:13 10° SSW
Cosmos 2082 Rocket 2.6 22:47:05 52° WNW 22:48:01 60° WSW 22:53:38 10° SSE
ARGOS 3.7 22:47:08 10° S 22:52:26 53° WSW 22:52:58 51° W
Lacrosse 4 Rocket 3.1 22:48:09 10° SSW 22:50:47 34° SSW 22:50:47 34° SSW
DELTA 2 R/B (1) 4.2 22:49:07 10° W 22:53:16 50° W 22:53:16 50° W
Cosmos 1697 Rocket 3.5 23:00:53 10° SW 23:05:35 46° W 23:05:35 46° W
USA 215 3.8 23:09:27 10° SE 23:15:52 55° SW 23:22:15 10° WNW
SL-16 R/B 3.7 23:12:31 10° S 23:16:05 29° SSE 23:16:05 29° SSE
CZ-2C R/B 4.2 23:14:55 10° S 23:19:45 41° WSW 23:19:45 41° WSW
Cosmos 2322 Rocket 3.7 23:40:17 10° SSW 23:43:34 32° S 23:43:34 32° S
USA 267 3.7 23:49:25 57° S 23:49:25 57° S 23:54:53 10° SW
Resurs 01 Rocket 4.3 23:49:48 10° SSW 23:51:43 17° SW 23:51:43 17° SW
Cosmos 2360 Rocket 4.1 23:48:13 10° S 23:51:06 23° SSE 23:51:06 23° SSE
